Regional Weather Roundup
Issued by NWS

Home | Current Version | Previous Version | Graphics & Text | Print | Product List | Glossary Off
Versions: 1 2 3 4 5 6 7 8 9 10 11 12 13 14 15 16 17 18 19 20 21 22 23 24 25 26 27 28 29 30 31 32 33 34 35 36 37 38 39 40 41 42 43 44 45 46 47 48 49 50

000
ASUS43 KMKX 100021
RWRWI

WISCONSIN REGIONAL WEATHER ROUNDUP
NATIONAL WEATHER SERVICE MILWAUKEE/SULLIVAN WI
600 PM CST FRI DEC 09 2016

NOTE: "FAIR" INDICATES FEW OR NO CLOUDS BELOW 12,000 FEET WITH NO
SIGNIFICANT WEATHER AND/OR OBSTRUCTIONS TO VISIBILITY.

WIZ001-002-006>008-014>016-023>028-100100-
NORTHWEST WISCONSIN

CITY           SKY/WX    TMP DP  RH WIND       PRES   REMARKS
SUPERIOR ARPT  CLOUDY    12   1  63 NW8       30.49S WCI   0
6HR MIN TEMP:  12; 6HR MAX TEMP:  15;

ASHLAND        CLOUDY    12   3  67 W7        30.46F WCI   1
6HR MIN TEMP:  12; 6HR MAX TEMP:  17; 6HR PCP: TRACE;

HAYWARD        CLOUDY    13   5  70 VRB5      30.43S WCI   5
6HR MIN TEMP:  13; 6HR MAX TEMP:  17; 6HR PCP: TRACE;

SIREN          CLOUDY    14   6  69 NW9       30.46S WCI   2
6HR MIN TEMP:  14; 6HR MAX TEMP:  17;

CUMBERLAND     CLOUDY    14   5  67 NW7       30.43S WCI   4
RICE LAKE      CLOUDY    16  10  75 W7        30.46S WCI   6
6HR MIN TEMP:  16; 6HR MAX TEMP:  18;

CHETEK         CLOUDY    16   9  73 W6        30.45F WCI   8
6HR MIN TEMP:  16; 6HR MAX TEMP:  18;

LADYSMITH      FLURRIES  17  11  77 SW8       30.43F WCI   6
6HR MIN TEMP:  17; 6HR MAX TEMP:  19;

EAU CLAIRE     LGT SNOW  16  12  84 W3        30.47S FOG
6HR MIN TEMP:  14; 6HR MAX TEMP:  18; 6HR PCP: TRACE;

MENOMONIE      CLOUDY    18  12  77 W3        30.47S
6HR MIN TEMP:  18; 6HR MAX TEMP:  20;

NEW RICHMOND   CLOUDY    15   5  64 W9        30.46F WCI   4
6HR MIN TEMP:  15; 6HR MAX TEMP:  19;

OSCEOLA        FLURRIES  16   9  72 NW6       30.51S WCI   8
6HR MIN TEMP:  16; 6HR MAX TEMP:  20;

$$

WIZ003>005-009-010-017-018-100100-
NORTH CENTRAL WISCONSIN

CITY           SKY/WX    TMP DP  RH WIND       PRES   REMARKS
MANITOWISH WTR CLOUDY    12   6  76 W8        30.36S WCI   0
6HR MIN TEMP:  12; 6HR MAX TEMP:  14;

ARBOR VITAE    CLOUDY    17   7  66 W6        30.36S WCI   8
6HR MIN TEMP:  17; 6HR MAX TEMP:  17;

WOODRUFF       CLOUDY    17   7  66 W6        30.36S WCI   8
6HR MIN TEMP:  17; 6HR MAX TEMP:  17;

RHINELANDER    CLOUDY    15   7  70 W3        30.36F
6HR MIN TEMP:  15; 6HR MAX TEMP:  18; 6HR PCP: TRACE;

EAGLE RIVER    CLOUDY    13   5  69 CALM      30.35F
6HR MIN TEMP:  13; 6HR MAX TEMP:  18;

LAND O LAKES   CLOUDY    13   8  78 CALM      30.36F
6HR MIN TEMP:  13; 6HR MAX TEMP:  19;

PHILLIPS       FLURRIES  14  10  83 NW3       30.38S
6HR MIN TEMP:  14; 6HR MAX TEMP:  16;

TOMAHAWK       CLOUDY    14  10  82 W3        30.39S
6HR MIN TEMP:  14; 6HR MAX TEMP:  17;

MEDFORD        MOCLDY    13   9  82 W6        30.40S WCI   4
6HR MIN TEMP:  13; 6HR MAX TEMP:  17;

MERRILL        LGT SNOW  16  13  87 W3        30.41S
6HR MIN TEMP:  16; 6HR MAX TEMP:  19;

$$

WIZ029-030-035-036-043>047-100100-
CENTRAL WISCONSIN

CITY           SKY/WX    TMP DP  RH WIND       PRES   REMARKS
WAUSAU         PTCLDY    15   8  73 W8        30.40F WCI   4
6HR MIN TEMP:  15; 6HR MAX TEMP:  19;

MOSINEE        CLOUDY    16  10  79 W6        30.43S WCI   7
MARSHFIELD     CLOUDY    16   8  71 W5        30.42S WCI   9
6HR MIN TEMP:  16; 6HR MAX TEMP:  18;

STEVENS POINT  MOCLDY    15   8  73 CALM      30.44F
6HR MIN TEMP:  15; 6HR MAX TEMP:  19;

WAUPACA        PTCLDY    19   9  64 CALM      30.46S
6HR MIN TEMP:  19; 6HR MAX TEMP:  26;

WAUTOMA        CLOUDY    13   8  81 CALM      30.47S
6HR MIN TEMP:  13; 6HR MAX TEMP:  23;

WISC RAPIDS    CLEAR     15   9  76 NW5       30.46S WCI   8
6HR MIN TEMP:  15; 6HR MAX TEMP:  22;

CAMP DOUGLAS   CLEAR     15   8  75 W5        30.47R WCI   7
6HR MIN TEMP:  15; 6HR MAX TEMP:  24;

$$

WIZ011>013-019>022-031-037>040-048>050-100100-
NORTHEAST WISCONSIN

CITY           SKY/WX    TMP DP  RH WIND       PRES   REMARKS
ANTIGO         CLOUDY    15   6  69 NW7       30.38F WCI   5
6HR MIN TEMP:  15; 6HR MAX TEMP:  19;

SHAWANO        CLOUDY    22   7  52 NW7       30.45S WCI  14
6HR MIN TEMP:  22; 6HR MAX TEMP:  27;

OCONTO         CLOUDY    21   9  58 W8        30.43S WCI  12
6HR MIN TEMP:  21; 6HR MAX TEMP:  26;

STURGEON BAY   FLURRIES  23   9  55 NW13      30.41S WCI  11
6HR MIN TEMP:  23; 6HR MAX TEMP:  26; 6HR PCP:  0.05;

GREEN BAY      PTCLDY    21   9  59 W8        30.44S WCI  11
6HR MIN TEMP:  21; 6HR MAX TEMP:  27;

MANITOWOC      MOCLDY    22   9  57 W9        30.45R WCI  12
6HR MIN TEMP:  22; 6HR MAX TEMP:  26;

APPLETON       PTCLDY    18   5  57 W9        30.43S WCI   6
CLINTONVILLE   CLOUDY    21   7  53 NW9       30.44F WCI  11
OSHKOSH        CLEAR     18   7  62 NW5       30.45S WCI  11
6HR MIN TEMP:  18; 6HR MAX TEMP:  25;

$$

WIZ032>034-041-042-053>061-100100-
SOUTHWEST WISCONSIN

CITY           SKY/WX    TMP DP  RH WIND       PRES   REMARKS
LA CROSSE      PTCLDY    20  10  65 W7        30.51S WCI  11
6HR MIN TEMP:  20; 6HR MAX TEMP:  25;

SPARTA         CLEAR     18  11  75 CALM      30.49S
6HR MIN TEMP:  17; 6HR MAX TEMP:  24;

VIROQUA        PTCLDY    15  10  80 W8        30.46S WCI   4
6HR MIN TEMP:  14; 6HR MAX TEMP:  20;

BOSCOBEL       MOCLDY    20  11  68 SW3       30.52F
6HR MIN TEMP:  20; 6HR MAX TEMP:  25;

PRAIRIE DU CHI PTCLDY    19  11  71 W6        30.53S WCI  10
6HR MIN TEMP:  18; 6HR MAX TEMP:  23;

PLATTEVILLE    CLEAR     16  13  87 SW5       30.50F WCI   9
6HR MIN TEMP:  15; 6HR MAX TEMP:  22;

$$

WIZ056-057-062-063-064-067-068-100100-
SOUTH CENTRAL WISCONSIN

CITY           SKY/WX    TMP DP  RH WIND       PRES   REMARKS
REEDSBURG      CLEAR     19  10  68 W7        30.47S WCI   9
6HR MIN TEMP:  18; 6HR MAX TEMP:  24;

BARABOO/DELLS  CLEAR     18   8  67 W3        30.47S
6HR MIN TEMP:  18; 6HR MAX TEMP:  24;

LONE ROCK      CLEAR     20  11  68 W5        30.51R WCI  13
6HR MIN TEMP:  20; 6HR MAX TEMP:  26;

MINERAL POINT  CLEAR     18  12  79 W6        30.47F WCI   9
MADISON        PTCLDY    19   9  65 CALM      30.48S
6HR MIN TEMP:  19; 6HR MAX TEMP:  24;

MIDDLETON      PTCLDY    20  13  73 SW7       30.49S WCI  11
6HR MIN TEMP:  20; 6HR MAX TEMP:  27;

WATERTOWN      CLEAR     19  11  70 CALM      30.47S
6HR MIN TEMP:  19; 6HR MAX TEMP:  24;

MONROE         CLEAR     18  12  79 W10       30.48R WCI   6
JANESVILLE     CLEAR    N/A N/A N/A W3        30.50S
$$

WIZ051-052-058>065-066-070>072-100100-
SOUTHEAST WISCONSIN

CITY           SKY/WX    TMP DP  RH WIND       PRES   REMARKS
MILWAUKEE      MOCLDY    23   9  55 W7        30.48S WCI  15
6HR MIN TEMP:  23; 6HR MAX TEMP:  28;

WAUKESHA       CLEAR     18  10  73 SW9       30.48S WCI   6
MILWAUKEE/TIMM CLEAR     19   9  63 W5        30.48S WCI  13
RACINE         CLEAR     22   8  55 W5        30.50S WCI  16
6HR MIN TEMP:  22; 6HR MAX TEMP:  28;

BURLINGTON     CLEAR     23  17  75 CALM      30.49S
6HR MIN TEMP:  23; 6HR MAX TEMP:  31;

KENOSHA        CLEAR     20  11  68 W6        30.49S WCI  12
6HR MIN TEMP:  20; 6HR MAX TEMP:  28;

FOND DU LAC    CLEAR     18   5  57 W3        30.46S
6HR MIN TEMP:  17; 6HR MAX TEMP:  24;

SHEBOYGAN      CLEAR     20   8  60 W7        30.45S WCI  11
6HR MIN TEMP:  20; 6HR MAX TEMP:  26;

WEST BEND      CLEAR     19  10  68 W3        30.46R
JUNEAU         CLEAR     16   7  66 W3        30.47S
6HR MIN TEMP:  16; 6HR MAX TEMP:  22;

$$

LSZ147-162-100100-
LAKE SUPERIOR

STATION/POSITION TIME  TEMP    WIND        PRES    WAVE
                       AIR SEA DIR/SP/G            HT/PER
                 (UTC) (F)     (DEG/KT/KT) (MB)    (FT/S)
DEVILS ISLAND    0000   13     280/ 20/ 23 1032.8F
PORT WING        2340   14     310/ 13/ 20 1031.8S
SAXON HARBOR     2330   15     290/  8/ 10 1031.2F
$$

LMZ867-665-643>646-100100-
LAKE MICHIGAN

STATION/POSITION TIME  TEMP    WIND        PRES    WAVE
                C1F1C2F2C3F3C4F4C5F5C6F6C7F7C8M1C9M2Ca!



USA.gov is the U.S. government's official web portal to all federal, state and local government web resources and services.